Location: Unspecified
(0.0000°N, 0.0000°E)
Time: 01:24:35
(UTC+00:00)

Explorer 7 - Pass Details

Date: 20 November 2019
Orbit: 485 x 680 km, 50.3° (Epoch: 11 December)

Event Time Altitude Azimuth Distance (km) Brightness Sun altitude
Rises 21:22:30 0° 246° (WSW) 3,022 11.2 -49.8°
Enters shadow 21:22:45 - 247° (WSW) 2,944 11.2 -49.8°
Reaches altitude 10° 21:25:32 10° 265° (W) 2,109 - -50.4°
Maximum altitude 21:28:51 18° 307° (NW) 1,631 - -51.1°
Drops below altitude 10° 21:32:07 10° 350° (N) 2,085 - -51.8°
Sets 21:35:07 0° 9° (N) 2,973 - -52.4°
